Location: *
(40.7873°S, 98.7174°E)
Time: 12:15:40
(UTC+00:00)

NOSS 3-4 (C) - Pass Details

Date: 30 September 2022
Orbit: 836 x 1376 km, 63.4° (Epoch: 25 November)

Event Time Altitude Azimuth Distance (km) Brightness Sun altitude
Exits shadow 20:07:09 55° 246° (WSW) 1,580 4.3 -31.2°
Maximum altitude 20:07:46 57° 229° (SW) 1,559 4.3 -31.1°
Drops below altitude 10° 20:15:39 10° 151° (SSE) 3,249 7.0 -29.9°
Sets 20:18:25 0° 147° (SSE) 4,150 7.8 -29.5°
